[[{"header":{"parameterUnit":"m.s-1","parameterCategory":1,"la1":30.2991,"la2":30.254,"lo1":-89.0895,"lo2":-89.0444,"dy":0.0017,"dx":0.0017,"nx":28,"ny":28,"refTime":"2023-09-24T21:00:00:Z","depth":0,"parameterNumber":2,"parameterNumberName":"U-component_of_WINDS"},"data":[0,0,0,0,0,0,0,0,0,0,0,0,0,0,0,0,0,0,0,0,0,0,0,0,0,0,0,0,0,0,0,0,0,0,0,0,0,0,0,0,0,0,0,0,0,0,0,0,0,0,0,0,0,0,0,0,0,0,-3.6362,-3.636,0,-3.6227,-3.6226,-3.6224,-3.6139,-3.6138,-3.6138,-3.6137,-3.5983,-3.5979,-3.5976,0,0,0,0,0,0,0,0,0,0,0,0,0,-3.6531,-3.6529,-3.6362,-3.636,-3.6359,-3.6227,-3.6226,-3.6224,-3.6139,-3.6138,-3.6138,-3.6137,-3.5984,-3.598,-3.5975,0,0,0,0,0,0,0,0,0,0,0,0,0,-3.6433,-3.6528,-3.6362,-3.6301,-3.6294,-3.6228,-3.6225,-3.6223,-3.6139,-3.6138,-3.6138,-3.6137,-3.5986,-3.598,-3.5975,-3.5954,0,0,-3.5958,-3.5955,0,0,0,0,0,0,0,0,-3.6439,-3.6427,-3.6311,-3.6305,-3.6297,-3.62,-3.6228,-3.6132,-3.6139,-3.6197,-3.6137,-3.6137,-3.6054,-3.6043,-3.6019,-3.5947,-3.594,-3.5957,-3.5954,-3.5952,-3.595,0,0,0,0,0,0,0,-3.6445,-3.6432,-3.6308,-3.631,-3.6301,-3.6275,-3.6261,-3.621,-3.6131,-3.6192,-3.6186,-3.6172,-3.605,-3.6024,-3.6015,-3.5938,-3.5957,-3.5953,-3.5949,-3.5947,-3.584,-3.584,0,0,0,0,0,0,-3.6464,-3.6438,-3.6312,-3.6304,-3.6368,-3.6273,-3.6256,-3.6231,-3.6131,-3.6116,-3.6173,-3.6168,-3.6034,-3.6021,-3.6009,-3.5977,-3.5952,-3.5946,-3.5943,-3.584,-3.584,-3.5841,0,0,0,0,0,0,-3.6468,-3.6454,-3.6318,-3.6369,-3.635,-3.6271,-3.6243,-3.6229,-3.6203,-3.6117,-3.61,-3.6162,-3.6033,-3.6017,-3.5969,-3.597,-3.5944,-3.5939,-3.5839,-3.584,-3.584,-3.5914,0,0,0,0,0,0,-3.6473,-3.6456,-3.645,-3.637,-3.6348,-3.6285,-3.6243,-3.6227,-3.6196,-3.6189,-3.6102,-3.6087,-3.6031,-3.5978,-3.5964,-3.5962,-3.5935,-3.5838,-3.5839,-3.584,-3.5911,-3.5917,-3.5922,0,0,0,0,0,-3.648,-3.6473,-3.6451,-3.6436,-3.634,-3.6285,-3.6272,-3.6213,-3.6196,-3.6188,-3.6132,-3.609,-3.5974,-3.5974,-3.5957,-3.5954,-3.5838,-3.5839,-3.584,-3.5908,-3.5916,-3.5922,0,0,0,0,0,0,-3.6549,-3.6461,-3.6435,-3.6403,-3.6354,-3.6271,-3.6259,-3.6223,-3.6172,-3.6167,-3.6091,-3.6072,-3.6032,-3.5988,-3.599,-3.5928,-3.59,-3.5898,-3.5958,-3.5964,-3.597,-3.5979,-3.593,0,0,0,0,0,-3.6562,-3.653,-3.6452,-3.6431,-3.6408,-3.6339,-3.6312,-3.6272,-3.6214,-3.6191,-3.6132,-3.6073,-3.6023,-3.5991,-3.5941,-3.5905,-3.5883,-3.5894,-3.59,-3.5905,-3.5903,-3.5879,-3.5882,-3.5844,-3.5844,-3.5844,0,0,-3.6585,-3.6533,-3.6516,-3.6444,-3.64,-3.6364,-3.6321,-3.6284,-3.6255,-3.6183,-3.6136,-3.6091,-3.602,-3.5979,-3.5957,-3.5941,-3.5909,-3.5906,-3.5911,-3.5906,-3.588,-3.5884,-3.5887,-3.5845,-3.5845,-3.5845,0,0,-3.661,-3.6569,-3.6547,-3.6505,-3.6442,-3.6396,-3.6391,-3.6315,-3.6284,-3.6237,-3.6183,-3.6145,-3.6061,-3.6013,-3.5977,-3.5987,-3.5944,-3.5972,-3.6,-3.5977,-3.598,-3.5982,-3.5983,-3.5985,-3.597,-3.5971,-3.5971,0,-3.6645,-3.6594,-3.6538,-3.6506,-3.6474,-3.6415,-3.6389,-3.635,-3.6271,-3.6248,-3.6233,-3.6128,-3.6076,-3.6021,-3.6024,-3.5998,-3.5987,-3.598,-3.5985,-3.5987,-3.5988,-3.5988,-3.5988,-3.5974,-3.5974,-3.5973,-3.5973,0,-3.6639,-3.6604,-3.6593,-3.6525,-3.6492,-3.6463,-3.6399,-3.6372,-3.6335,-3.629,-3.6241,-3.6178,-3.6113,-3.6098,-3.6059,-3.6037,-3.6029,-3.6001,-3.5971,-3.5996,-3.5994,-3.5994,-3.5979,-3.5978,-3.5977,-3.5976,0,0,-3.67,-3.6606,-3.6602,-3.657,-3.6497,-3.6466,-3.6433,-3.6376,-3.6353,-3.6301,-3.6268,-3.6201,-3.6175,-3.6135,-3.609,-3.6071,-3.608,-3.6044,-3.6041,-3.6051,-3.6049,-3.6069,-3.607,-3.6053,-3.6053,-3.6052,-3.6054,0,-3.6712,-3.6656,-3.6606,-3.6565,-3.653,-3.6474,-3.6445,-3.6395,-3.6352,-3.6312,-3.6262,-3.6215,-3.6185,-3.6161,-3.614,-3.6083,-3.6078,-3.6083,-3.6017,-3.6015,-3.6034,-3.607,-3.609,-3.6095,-3.6053,-3.6053,-3.6053,0,-3.6717,-3.6674,-3.6632,-3.6563,-3.6546,-3.6522,-3.6465,-3.643,-3.637,-3.634,-3.6298,-3.6252,-3.621,-3.6188,-3.6127,-3.6132,-3.6101,-3.607,-3.6068,-3.6057,-3.6034,-3.6057,-3.6095,-3.6095,-3.6052,-3.6052,-3.6052,0,-3.6764,-3.6694,-3.666,-3.6634,-3.6554,-3.6538,-3.6502,-3.6443,-3.6412,-3.6361,-3.6339,-3.6282,-3.625,-3.6204,-3.6143,-3.6133,-3.6087,-3.606,-3.6057,-3.6058,-3.6046,-3.6048,-3.6079,-3.6033,-3.6033,-3.6033,-3.6033,0,-3.678,-3.6756,-3.668,-3.6658,-3.6628,-3.657,-3.654,-3.6499,-3.6448,-3.6414,-3.636,-3.6329,-3.6252,-3.6209,-3.616,-3.6116,-3.6102,-3.6073,-3.6059,-3.6076,-3.6079,-3.6053,-3.605,-3.6033,-3.6033,-3.6033,-3.6033,0,-3.6825,-3.6774,-3.6733,-3.6662,-3.6643,-3.6624,-3.6561,-3.6535,-3.6492,-3.6449,-3.6436,-3.6364,-3.6311,-3.6248,-3.6172,-3.614,-3.6099,-3.608,-3.6121,-3.6113,-3.6112,-3.6112,-3.6124,-3.6122,-3.6081,-3.6082,-3.6082,0,-3.6838,-3.6819,-3.6747,-3.6724,-3.6692,-3.6654,-3.6624,-3.6565,-3.6534,-3.6466,-3.6448,-3.6394,-3.6346,-3.6264,-3.6202,-3.6144,-3.6122,-3.6131,-3.6112,-3.613,-3.6119,-3.612,-3.6117,-3.6134,-3.6135,-3.6136,-3.6136,0,-3.6865,-3.6841,-3.6802,-3.6755,-3.6721,-3.6679,-3.6635,-3.6617,-3.6548,-3.6516,-3.6465,-3.6429,-3.6356,-3.63,-3.6236,-3.6193,-3.6151,-3.6143,-3.6139,-3.6154,-3.6177,-3.6162,-3.6131,-3.6142,-3.6141,-3.6141,-3.6141,-3.614,-3.6892,-3.6872,-3.682,-3.6778,-3.674,-3.67,-3.6673,-3.6628,-3.6586,-3.6526,-3.6493,-3.6442,-3.6381,-3.6291,-3.6251,-3.6207,-3.6192,-3.6186,-3.6184,-3.6183,-3.6187,-3.6188,-3.6195,-3.6194,-3.6194,-3.6194,-3.6194,0,-3.6914,-3.6879,-3.6842,-3.6784,-3.675,-3.6721,-3.667,-3.6642,-3.6601,-3.6551,-3.6507,-3.6448,-3.6395,-3.633,-3.6271,-3.6248,-3.6228,-3.6234,-3.6234,-3.6224,-3.6205,-3.6214,-3.6252,-3.6252,-3.6252,-3.6252,-3.6252,-3.6252,-3.6922,-3.6887,-3.6858,-3.6802,-3.6765,-3.672,-3.6693,-3.6654,-3.6615,-3.6553,-3.6511,-3.6471,-3.6414,-3.6351,-3.6299,-3.6281,-3.626,-3.6273,-3.6248,-3.6231,-3.6226,-3.6221,-3.6228,-3.627,-3.627,-3.6271,-3.6271,-3.6271]},{"header":{"parameterUnit":"m.s-1","parameterCategory":1,"la1":30.2991,"la2":30.254,"lo1":-89.0895,"lo2":-89.0444,"dy":0.0017,"dx":0.0017,"nx":28,"ny":28,"refTime":"2023-09-24T21:00:00:Z","depth":0,"parameterNumber":3,"parameterNumberName":"V-component_of_WINDS"},"data":[0,0,0,0,0,0,0,0,0,0,0,0,0,0,0,0,0,0,0,0,0,0,0,0,0,0,0,0,0,0,0,0,0,0,0,0,0,0,0,0,0,0,0,0,0,0,0,0,0,0,0,0,0,0,0,0,0,0,-0.6431,-0.6433,0,-0.6681,-0.6683,-0.6686,-0.6782,-0.6781,-0.6781,-0.678,-0.7037,-0.7045,-0.7052,0,0,0,0,0,0,0,0,0,0,0,0,0,-0.6036,-0.6043,-0.643,-0.6434,-0.6437,-0.668,-0.6684,-0.6687,-0.6782,-0.6781,-0.6781,-0.678,-0.7035,-0.7044,-0.7053,0,0,0,0,0,0,0,0,0,0,0,0,0,-0.6239,-0.6045,-0.643,-0.6514,-0.6524,-0.6679,-0.6684,-0.6688,-0.6783,-0.6781,-0.678,-0.6779,-0.7032,-0.7043,-0.7054,-0.7145,0,0,-0.7088,-0.7093,0,0,0,0,0,0,0,0,-0.6227,-0.6253,-0.6498,-0.6508,-0.652,-0.6699,-0.6639,-0.6841,-0.6783,-0.6684,-0.678,-0.6779,-0.6926,-0.6946,-0.6995,-0.7157,-0.7168,-0.7089,-0.7096,-0.7101,-0.7104,0,0,0,0,0,0,0,-0.6213,-0.6243,-0.653,-0.6502,-0.6515,-0.6539,-0.6566,-0.6678,-0.6808,-0.6693,-0.67,-0.6729,-0.6931,-0.6984,-0.7002,-0.7172,-0.7089,-0.7099,-0.7106,-0.711,-0.7421,-0.7422,0,0,0,0,0,0,-0.6185,-0.6231,-0.6522,-0.6537,-0.6368,-0.6547,-0.6578,-0.6643,-0.6807,-0.6831,-0.6729,-0.6732,-0.6965,-0.6988,-0.7011,-0.7128,-0.7101,-0.7112,-0.7118,-0.7419,-0.7421,-0.7422,0,0,0,0,0,0,-0.6176,-0.621,-0.6511,-0.6386,-0.6426,-0.6555,-0.6627,-0.6648,-0.6701,-0.6835,-0.6858,-0.6759,-0.6965,-0.6995,-0.7111,-0.7138,-0.7117,-0.7127,-0.7417,-0.742,-0.7422,-0.7363,0,0,0,0,0,0,-0.6164,-0.6206,-0.6242,-0.6386,-0.6432,-0.6607,-0.6629,-0.6654,-0.672,-0.6726,-0.6869,-0.6891,-0.6967,-0.7093,-0.7122,-0.7153,-0.7136,-0.7415,-0.7418,-0.7421,-0.7363,-0.7363,-0.7362,0,0,0,0,0,-0.615,-0.6216,-0.6244,-0.6278,-0.648,-0.6608,-0.6635,-0.672,-0.6722,-0.6759,-0.6845,-0.6887,-0.713,-0.7104,-0.7137,-0.7173,-0.7414,-0.7418,-0.7421,-0.7363,-0.7363,-0.7362,0,0,0,0,0,0,-0.6073,-0.6237,-0.6269,-0.6384,-0.6481,-0.6624,-0.6674,-0.6717,-0.6816,-0.6818,-0.6919,-0.6951,-0.7058,-0.7127,-0.7095,-0.7269,-0.7275,-0.7285,-0.722,-0.7221,-0.7221,-0.7201,-0.7145,0,0,0,0,0,-0.6069,-0.6159,-0.6298,-0.6385,-0.6433,-0.6544,-0.6603,-0.666,-0.6766,-0.6807,-0.6902,-0.7003,-0.7102,-0.7165,-0.7264,-0.7373,-0.7405,-0.7413,-0.7413,-0.7412,-0.742,-0.7481,-0.7486,-0.7433,-0.7433,-0.7433,0,0,-0.6063,-0.6163,-0.6214,-0.6372,-0.6455,-0.6546,-0.6579,-0.6674,-0.6742,-0.6822,-0.6937,-0.7009,-0.7128,-0.724,-0.7295,-0.7301,-0.7441,-0.7417,-0.7415,-0.7423,-0.7485,-0.749,-0.7494,-0.7436,-0.7435,-0.7435,0,0,-0.6097,-0.6182,-0.6264,-0.6346,-0.647,-0.6544,-0.6563,-0.67,-0.675,-0.6867,-0.6928,-0.7011,-0.718,-0.7262,-0.7326,-0.7389,-0.7432,-0.7419,-0.7418,-0.7476,-0.7481,-0.7485,-0.7506,-0.7513,-0.7426,-0.7426,-0.7426,0,-0.6073,-0.6213,-0.6301,-0.6393,-0.646,-0.6536,-0.662,-0.6695,-0.6844,-0.6889,-0.6894,-0.7107,-0.7193,-0.7324,-0.7339,-0.7389,-0.7414,-0.7403,-0.7473,-0.7478,-0.7483,-0.7505,-0.7513,-0.7423,-0.7423,-0.7424,-0.7424,0,-0.6177,-0.6272,-0.6324,-0.6465,-0.6539,-0.6626,-0.6727,-0.6791,-0.6841,-0.6914,-0.7031,-0.7136,-0.7257,-0.7292,-0.7342,-0.7431,-0.7431,-0.7453,-0.7461,-0.7484,-0.7506,-0.7515,-0.742,-0.7421,-0.7421,-0.7422,0,0,-0.617,-0.6359,-0.6376,-0.6441,-0.6583,-0.6658,-0.6748,-0.6866,-0.6918,-0.7018,-0.7096,-0.7236,-0.7258,-0.733,-0.739,-0.7441,-0.7483,-0.7458,-0.7462,-0.7458,-0.7585,-0.7567,-0.7576,-0.7512,-0.7514,-0.7515,-0.7575,0,-0.6222,-0.6386,-0.6468,-0.6597,-0.6686,-0.6759,-0.6837,-0.6932,-0.7002,-0.7088,-0.7166,-0.7263,-0.7284,-0.7328,-0.7382,-0.7466,-0.751,-0.7463,-0.7584,-0.7588,-0.7552,-0.7588,-0.7569,-0.7621,-0.7584,-0.7586,-0.7587,0,-0.6305,-0.6404,-0.6541,-0.6672,-0.6712,-0.6781,-0.6895,-0.6976,-0.7085,-0.7132,-0.7212,-0.727,-0.7367,-0.7368,-0.7502,-0.7468,-0.7523,-0.7571,-0.7576,-0.759,-0.7588,-0.7602,-0.7639,-0.7647,-0.7602,-0.7601,-0.76,0,-0.6285,-0.6453,-0.6557,-0.661,-0.6765,-0.6811,-0.6878,-0.6986,-0.7051,-0.7151,-0.7194,-0.7303,-0.7362,-0.7445,-0.7531,-0.7524,-0.7657,-0.7665,-0.7698,-0.7696,-0.7723,-0.772,-0.7769,-0.7758,-0.7758,-0.7758,-0.7758,0,-0.6335,-0.6416,-0.655,-0.6613,-0.6706,-0.6799,-0.6888,-0.696,-0.7055,-0.7134,-0.7204,-0.7276,-0.7385,-0.7471,-0.7538,-0.7638,-0.7665,-0.7706,-0.7723,-0.7699,-0.7694,-0.7736,-0.7735,-0.776,-0.776,-0.7759,-0.7759,0,-0.6328,-0.6421,-0.6539,-0.6675,-0.6711,-0.6773,-0.689,-0.6955,-0.7028,-0.7126,-0.7155,-0.727,-0.7374,-0.7468,-0.7606,-0.7652,-0.7753,-0.7775,-0.7716,-0.7726,-0.7753,-0.7749,-0.7831,-0.7846,-0.7824,-0.7824,-0.7824,0,-0.6353,-0.6417,-0.656,-0.6618,-0.6683,-0.6775,-0.6841,-0.6935,-0.7002,-0.713,-0.7178,-0.7288,-0.738,-0.7543,-0.7639,-0.7744,-0.7769,-0.779,-0.7785,-0.7759,-0.7768,-0.7763,-0.777,-0.7789,-0.7789,-0.7789,-0.7788,0,-0.6388,-0.643,-0.6523,-0.6633,-0.671,-0.68,-0.6893,-0.6936,-0.7047,-0.7118,-0.7225,-0.7297,-0.7438,-0.7545,-0.7661,-0.773,-0.7777,-0.7789,-0.7802,-0.7779,-0.7742,-0.7762,-0.7714,-0.7787,-0.7787,-0.7787,-0.7787,-0.7787,-0.6398,-0.6457,-0.6567,-0.6668,-0.6748,-0.6832,-0.6899,-0.698,-0.7072,-0.7194,-0.7243,-0.7352,-0.7459,-0.762,-0.7688,-0.7773,-0.7783,-0.7802,-0.7807,-0.781,-0.7805,-0.7728,-0.7795,-0.7795,-0.7795,-0.7796,-0.7796,0,-0.6435,-0.6509,-0.6601,-0.6728,-0.6808,-0.6846,-0.695,-0.7014,-0.7108,-0.7204,-0.7293,-0.7415,-0.752,-0.7623,-0.7732,-0.7781,-0.7805,-0.7806,-0.7804,-0.7818,-0.7791,-0.7769,-0.7785,-0.7785,-0.7785,-0.7785,-0.7784,-0.7784,-0.6464,-0.6567,-0.6622,-0.6765,-0.6839,-0.6946,-0.7002,-0.708,-0.7156,-0.729,-0.7377,-0.7443,-0.7542,-0.7659,-0.7755,-0.7783,-0.782,-0.7814,-0.7848,-0.7821,-0.782,-0.782,-0.78,-0.7822,-0.7822,-0.7868,-0.7868,-0.7869]}]]